Location: Ambrosina
(19.9365°S, 43.9833°W)
Time: 01:19:39
(UTC+00:00)

ARIANE 5 R/B - Pass Details

Date: 11 May 2021
Orbit: 254 x 24097 km, 6.3° (Epoch: 20 June)

Event Time Altitude Azimuth Distance (km) Brightness Sun altitude
Rises 21:09:26 0° 290° (WNW) 7,058 9.2 -9.9°
Reaches altitude 10° 21:18:47 10° 314° (NW) 3,142 6.2 -12.1°
Maximum altitude 21:21:18 12° 336° (NNW) 2,251 5.0 -12.6°
Drops below altitude 10° 21:23:01 10° 0° (N) 1,920 4.3 -13.0°
Enters shadow 21:25:18 - 36° (NE) 2,098 4.1 -13.5°
